Location: Penton Mewsey
(51.2167°N, 1.5167°W)
Time: 17:27:12
(UTC+00:00)

STARLINK-1102 - Pass Details

Date: 30 March 2020
Orbit: 548 x 551 km, 53.0° (Epoch: 04 June)

Event Time Altitude Azimuth Distance (km) Brightness Sun altitude
Rises 20:26:02 0° 290° (WNW) 2,729 8.8 -17.0°
Reaches altitude 10° 20:28:19 10° 284° (WNW) 1,832 7.4 -17.3°
Maximum altitude 20:32:20 47° 211° (SSW) 732 4.2 -17.8°
Enters shadow 20:33:39 34° 161° (SSE) 919 4.3 -18.0°
